Wind_Speed
57 57 57 56 55 55 54 52 51 50 49 49 49 48 48 47 47 47 47 47 47 48 48 48 49 49 49 49 48 48 48 48 48 49 50 52 52 51 51 50 50 48 45 43 41 41 43 44 43 40 38 38 41 42 42 41 42 44 45 46 47 48 48 48 49 46 38 34 37 38 38 38 38 36 35 35 33 32 32 31 31 31 30 30 30
56 56 55 55 54 53 52 52 50 50 49 49 48 47 47 46 46 46 46 46 47 48 48 48 49 49 49 49 49 49 49 48 48 48 49 51 52 51 50 50 50 47 44 42 41 42 43 43 42 38 37 38 40 41 40 39 40 43 44 45 46 48 48 47 47 46 39 35 37 38 38 38 38 36 36 36 34 32 32 31 31 31 30 29 29
54 54 53 52 52 51 51 51 50 50 49 49 48 47 46 46 46 45 45 45 46 47 48 48 49 49 49 49 49 49 49 48 47 47 48 50 51 50 49 50 48 46 43 41 41 42 43 42 40 37 36 38 39 40 39 38 39 42 43 44 46 47 47 46 46 45 41 36 37 38 38 38 38 37 36 36 35 34 32 31 31 31 29 29 28
52 51 51 51 50 50 50 50 49 49 48 48 47 46 46 45 45 45 45 45 45 46 47 48 48 49 49 49 49 49 49 48 47 47 46 48 49 48 48 48 47 45 43 41 41 42 42 41 38 36 36 38 39 39 39 38 39 41 42 43 44 45 45 44 44 44 42 37 36 38 37 38 38 37 36 36 36 35 33 31 31 31 29 28 28
51 51 51 51 51 51 50 50 49 49 48 47 47 46 45 45 45 45 45 45 46 46 47 48 48 48 49 49 49 49 49 48 47 47 46 46 47 47 46 46 45 43 41 41 41 41 40 38 36 36 36 37 39 39 38 37 37 39 41 41 42 43 43 43 43 43 42 40 37 36 37 38 38 37 36 36 36 35 33 31 31 31 30 29 28
51 51 51 51 51 51 51 50 49 49 48 48 47 46 46 45 45 45 45 45 46 46 46 47 47 47 48 48 48 48 48 48 47 47 47 46 46 46 45 44 42 41 41 40 40 40 38 36 35 36 37 37 38 38 36 36 36 38 40 40 41 41 41 41 42 42 42 41 38 36 37 38 38 37 36 36 36 34 33 32 31 31 30 30 29
51 51 51 52 52 52 51 51 50 50 49 48 48 47 47 46 46 46 46 46 46 46 46 46 47 47 47 48 48 47 48 48 48 48 47 46 46 45 44 43 41 40 40 39 39 38 36 35 36 37 36 36 37 37 36 35 36 37 38 39 39 40 41 41 41 42 42 41 39 36 36 38 37 36 36 36 36 34 33 33 32 31 31 30 29
52 52 52 52 52 52 52 52 52 51 50 50 49 48 48 47 47 46 46 46 46 46 46 47 47 47 47 47 47 47 47 48 48 47 46 45 44 43 42 41 40 40 39 38 38 36 34 35 36 36 36 36 36 36 35 35 36 37 37 38 39 40 41 41 41 41 42 41 39 36 36 37 36 36 35 35 35 34 34 34 32 31 31 31 30
53 52 53 53 53 53 53 53 53 52 51 51 50 49 49 48 48 47 47 46 46 46 46 46 46 46 46 46 46 46 47 47 47 46 46 45 43 41 39 39 38 39 39 38 36 35 34 35 36 36 35 35 35 35 35 35 36 37 37 37 38 39 40 40 40 41 41 41 39 35 35 36 35 35 35 35 34 33 34 34 32 31 32 31 31
53 53 53 53 54 54 54 54 53 53 52 52 51 50 50 49 49 48 47 47 46 46 45 45 45 45 45 45 45 46 46 46 46 45 44 43 41 39 37 37 37 38 38 36 35 34 34 34 35 35 34 34 34 34 34 34 35 36 36 36 38 39 39 40 40 40 40 40 37 35 35 35 34 35 35 34 33 33 33 33 32 32 32 31 32
54 54 54 54 54 54 54 53 53 53 52 52 51 51 50 50 49 48 48 47 46 46 45 45 45 44 44 44 45 45 45 45 45 44 41 40 39 38 37 36 36 37 36 35 34 33 33 34 34 34 34 33 33 32 33 34 35 36 35 36 37 38 38 39 39 39 39 38 36 34 34 33 33 35 35 33 33 33 32 32 31 32 32 31 32
54 54 54 54 54 53 53 53 52 52 52 52 51 51 50 49 48 48 47 47 46 46 45 45 44 44 44 44 44 44 44 43 43 41 39 37 35 35 37 36 35 36 35 33 32 32 33 33 33 34 33 32 32 32 33 34 35 35 34 35 36 37 37 38 37 37 37 36 34 34 33 32 33 34 34 33 32 32 32 31 31 32 32 31 32
54 54 54 54 54 53 53 53 52 51 51 51 50 50 49 48 48 48 47 47 46 46 45 44 44 44 43 43 43 43 43 42 41 39 37 34 31 32 36 38 36 35 33 32 32 32 33 34 34 33 32 31 31 32 32 33 34 34 34 35 36 36 36 36 35 35 35 34 33 32 31 31 32 33 32 32 31 30 31 31 31 32 32 31 31
54 54 53 53 54 53 53 53 52 51 51 50 50 49 48 48 47 47 47 46 46 45 44 44 43 43 43 43 43 43 42 40 39 37 34 32 30 31 35 38 37 35 32 31 32 33 34 34 33 32 31 31 31 31 32 32 33 34 35 35 35 35 34 34 34 34 33 33 31 29 30 31 31 31 30 30 29 29 30 30 30 30 31 30 30
54 54 54 53 53 54 53 53 52 52 51 50 50 49 48 48 47 47 46 46 46 45 44 43 43 42 42 42 42 42 40 39 37 35 32 30 29 31 34 36 38 37 33 32 33 35 34 34 32 31 30 30 29 30 31 32 33 34 34 34 33 32 32 32 32 32 32 31 29 28 29 30 29 28 28 27 27 28 29 29 29 29 30 30 29
54 54 54 54 53 53 53 53 52 51 51 50 49 49 48 47 47 46 46 45 45 44 43 43 42 41 41 41 41 41 39 36 35 33 31 30 31 33 35 36 38 38 35 33 34 35 33 32 31 30 30 29 28 29 31 33 33 33 33 32 32 31 31 30 30 30 30 29 28 27 28 28 27 26 25 25 26 26 26 27 28 28 28 29 29
55 55 55 54 54 53 53 53 52 51 51 50 49 48 48 47 47 46 46 45 44 44 43 42 41 40 40 40 40 39 37 34 33 31 30 31 32 34 35 36 39 39 37 35 34 33 31 30 29 29 29 28 27 29 31 33 33 32 32 31 31 31 29 29 29 29 29 28 27 27 27 26 24 23 23 23 24 24 24 25 26 26 27 28 28
55 55 55 54 54 54 53 53 52 51 51 50 49 48 47 47 46 46 46 45 44 44 43 42 40 39 39 38 38 38 36 32 30 30 30 31 32 34 36 37 39 40 37 35 33 30 28 28 28 28 27 26 27 29 30 31 32 31 30 30 31 30 27 28 29 29 29 30 29 28 27 25 23 23 23 22 22 22 22 23 24 25 25 27 27
55 55 55 54 54 53 52 52 51 50 50 49 48 48 47 47 46 45 45 45 44 43 42 41 40 38 37 36 35 35 34 31 28 28 30 31 32 34 36 37 39 39 37 35 32 28 26 26 26 26 25 25 28 29 30 31 30 29 29 29 29 27 26 27 29 30 31 31 30 29 27 25 24 23 21 21 21 21 21 21 22 23 23 25 26
55 55 54 53 52 51 51 50 49 49 48 48 47 46 46 46 45 45 44 43 43 42 41 40 39 37 35 34 33 32 31 29 26 26 29 30 32 34 35 37 39 38 35 32 28 25 25 25 25 24 24 26 28 29 29 29 29 28 28 28 25 24 26 29 30 31 31 31 29 28 26 24 23 21 19 19 20 20 19 18 20 21 21 22 24
54 54 53 52 51 50 49 49 48 47 47 46 45 45 44 44 44 44 43 43 42 41 40 39 38 37 34 33 32 30 28 27 25 25 27 29 30 32 35 36 35 33 30 28 26 24 24 24 23 23 25 26 27 28 28 28 27 28 26 24 22 24 28 30 31 32 31 30 29 27 25 23 22 19 18 17 17 18 16 16 17 19 19 20 21
53 53 52 51 50 49 48 47 47 46 45 45 44 44 43 43 43 43 42 42 41 40 39 38 36 34 32 30 30 28 25 24 23 23 24 26 28 30 32 31 29 27 26 25 24 24 23 23 22 23 26 26 27 28 27 27 28 27 23 22 24 26 28 29 31 32 31 30 29 27 25 23 21 19 17 16 16 16 15 14 16 18 17 19 19
52 51 51 50 49 48 47 46 46 45 44 44 43 43 42 42 42 41 41 40 40 39 37 36 34 32 29 26 25 25 22 21 21 21 21 22 23 25 26 24 24 24 25 24 23 23 22 22 22 23 25 26 26 26 26 27 28 26 23 23 25 26 26 29 32 32 30 30 29 26 23 22 21 20 19 17 16 16 15 15 16 16 15 16 17
51 51 50 49 49 48 47 45 44 44 43 43 42 42 41 41 41 41 40 39 38 37 35 33 31 29 26 22 20 20 19 17 17 18 18 18 19 21 21 21 22 23 24 23 22 21 21 22 22 23 24 24 24 24 25 26 26 25 25 26 26 25 27 30 30 30 30 29 28 26 23 22 22 21 20 18 17 17 16 15 15 14 13 14 15
50 50 50 49 48 47 46 44 43 42 41 41 41 41 40 40 40 40 39 37 36 34 32 30 27 25 23 19 16 15 15 14 13 14 15 15 16 18 19 20 21 21 22 21 19 18 20 21 21 21 21 22 22 23 25 25 25 25 27 29 28 26 27 29 29 29 29 29 27 25 24 23 23 22 21 19 18 17 15 14 14 13 13 14 14
50 50 49 49 48 47 46 44 43 41 40 39 39 39 39 39 39 39 39 36 33 31 29 27 24 22 19 17 14 12 11 11 10 11 12 13 14 15 17 18 18 19 19 18 16 17 19 20 20 20 20 21 22 23 23 24 25 26 27 30 32 30 28 28 28 28 28 28 27 25 25 25 25 24 22 19 18 17 15 15 14 14 14 14 14
50 50 49 49 48 47 46 45 43 41 40 38 37 37 36 36 37 38 38 36 32 29 26 23 21 19 16 13 12 11 10 10 9 10 10 11 11 12 14 16 16 17 17 16 16 17 18 19 19 19 20 20 22 22 23 24 26 27 27 30 32 32 29 28 28 27 27 27 27 26 26 27 26 24 22 20 19 18 16 15 15 15 15 15 15
50 49 49 48 47 46 45 45 43 42 40 38 37 36 35 35 35 35 36 35 32 29 27 22 19 18 16 14 14 13 11 10 9 8 8 8 8 9 12 14 15 16 15 14 15 17 18 19 20 21 21 22 23 23 23 24 26 28 28 30 31 31 29 28 27 27 26 26 26 26 27 27 25 23 22 21 20 19 17 16 15 15 15 15 15
49 48 48 47 47 46 45 44 43 42 41 38 36 34 33 34 34 34 34 33 30 28 26 22 18 17 17 16 16 14 11 9 8 6 5 6 7 8 9 10 11 13 13 13 14 16 18 21 22 23 23 24 23 23 22 23 26 28 28 29 30 29 29 28 27 27 27 27 27 28 27 25 24 22 22 22 21 20 18 17 16 16 16 15 15
48 47 47 46 46 45 44 43 42 42 41 39 37 33 29 28 30 32 32 29 26 23 21 18 15 15 14 13 13 12 10 9 7 5 5 7 10 10 8 6 7 8 10 12 14 15 18 21 23 24 24 24 24 23 22 24 27 28 29 30 31 30 30 29 29 29 29 29 29 28 26 24 22 22 23 23 23 21 20 19 18 19 19 17 16
48 47 46 46 45 45 44 43 42 41 40 39 37 35 30 25 22 24 27 28 24 20 17 16 15 14 12 10 9 9 6 6 7 7 7 9 11 10 6 4 4 4 5 9 13 15 19 23 24 24 24 24 24 24 24 26 28 29 31 32 33 32 32 32 32 32 32 32 31 29 26 23 22 22 22 23 23 22 21 20 20 21 21 19 18
46 46 46 45 44 44 43 42 41 40 39 38 36 36 34 28 21 17 18 22 24 21 17 16 14 12 9 9 9 8 5 3 5 6 7 8 7 4 2 2 3 3 4 7 10 13 17 22 24 23 23 23 23 24 25 26 28 30 32 33 34 34 34 34 34 34 34 34 32 30 27 24 23 22 22 23 23 22 21 20 21 22 22 21 20
45 45 45 44 43 42 42 41 40 39 39 38 36 35 35 33 28 21 16 15 16 17 17 16 14 11 9 10 10 9 6 4 3 2 1 2 2 3 4 4 5 7 7 8 9 9 12 17 21 22 22 23 23 24 25 26 28 30 32 34 35 35 36 36 36 36 36 35 33 31 28 26 24 23 23 23 23 23 22 21 22 23 23 22 21
43 43 43 43 43 42 41 40 39 38 38 37 36 35 34 33 32 29 24 18 14 13 13 14 13 11 9 11 13 13 12 11 9 7 8 7 6 7 7 6 7 10 11 11 11 11 11 13 16 19 21 22 23 23 24 25 27 29 32 34 35 36 37 38 38 38 37 36 34 32 29 27 25 24 24 25 25 24 24 23 23 23 24 22 21
42 42 42 41 41 40 40 39 38 38 37 36 35 35 34 32 31 31 29 25 21 18 15 13 13 12 10 11 13 15 16 14 13 12 12 11 8 9 10 9 9 11 12 13 13 14 14 15 17 19 21 22 23 23 24 24 25 26 28 31 34 36 38 39 39 39 38 36 35 33 31 29 27 26 26 26 26 26 25 25 24 24 25 23 22
41 41 41 40 39 39 39 38 37 36 36 35 35 34 33 32 31 30 28 26 24 22 19 15 13 13 12 11 12 15 17 16 14 13 14 13 11 11 12 12 11 12 13 14 15 16 16 17 17 18 19 21 22 22 23 24 24 25 26 28 31 33 35 37 38 37 36 35 34 33 31 29 28 28 28 28 27 26 26 26 26 26 26 25 23
41 41 40 40 39 39 38 36 35 35 34 34 33 33 31 30 29 29 28 26 24 22 20 17 14 12 12 12 11 13 16 17 17 15 15 15 14 14 14 14 14 14 15 16 17 18 18 18 18 18 18 18 19 20 21 22 23 25 26 27 28 30 31 32 32 32 32 31 31 30 29 29 28 28 28 28 27 27 27 27 27 27 27 26 24
39 39 39 39 39 38 37 36 34 34 33 32 32 31 31 30 28 28 27 26 24 22 21 19 16 13 11 11 11 11 13 16 17 18 17 17 17 16 15 15 15 16 17 18 18 19 20 20 19 19 18 17 17 18 19 20 21 23 24 25 25 26 27 27 28 29 29 28 28 28 28 28 28 28 28 28 27 27 27 27 27 28 28 26 25
39 38 38 38 38 37 36 36 34 33 33 32 31 31 30 29 28 27 26 25 24 22 21 19 18 16 14 12 11 11 12 13 14 15 16 17 17 17 17 16 16 16 16 17 18 19 20 20 20 20 19 18 18 18 18 18 19 20 21 21 22 23 24 25 26 27 27 27 27 27 27 27 28 28 28 28 28 28 28 28 29 29 28 27 26
39 38 37 37 37 36 35 35 34 33 33 32 31 31 31 29 28 27 27 25 24 23 21 20 19 17 16 14 12 11 10 11 11 12 13 14 15 15 15 15 14 14 14 15 16 17 17 17 17 17 17 17 17 17 17 17 17 17 18 18 19 20 21 22 23 24 25 26 26 27 27 27 27 28 29 29 29 29 29 29 29 29 29 28 27
40 38 37 37 36 35 35 34 34 33 32 32 31 30 30 29 28 28 27 26 24 23 22 21 20 18 17 16 15 13 12 11 11 11 12 13 13 13 14 14 13 13 12 13 14 15 15 15 15 15 15 16 16 16 16 16 16 16 16 16 17 18 18 19 20 21 22 23 23 24 25 25 26 26 27 28 28 28 28 28 28 28 28 28 27
39 39 38 37 36 35 35 34 33 33 32 31 30 30 29 29 28 27 27 26 25 23 21 20 19 18 17 16 15 15 14 13 12 11 11 11 12 12 12 12 13 12 12 12 13 13 14 13 13 14 14 15 15 16 16 16 16 16 16 16 17 17 18 18 19 19 20 20 21 21 22 23 23 24 25 25 25 26 26 26 26 27 27 28 27
39 39 38 37 36 35 35 34 34 33 31 30 30 29 29 28 27 27 26 26 25 24 22 20 18 18 17 16 15 14 14 13 13 12 11 11 11 11 12 12 12 12 12 12 12 13 13 13 12 13 13 14 15 16 16 16 16 16 16 17 17 18 18 18 19 19 19 19 20 20 20 21 22 22 22 23 23 23 23 24 24 25 25 26 26
39 39 38 37 36 35 34 33 33 32 31 30 30 29 28 27 26 26 25 25 25 24 22 20 19 18 16 16 15 14 13 13 13 13 12 12 11 11 11 12 12 12 12 12 12 12 12 12 12 13 13 14 15 16 16 17 17 16 17 17 17 18 18 19 19 19 19 19 19 20 20 20 20 20 20 20 21 21 21 21 21 22 23 23 24
39 39 38 37 36 35 34 33 32 31 31 29 28 28 28 27 26 25 24 24 23 23 22 21 20 19 17 16 15 14 13 12 12 12 12 12 12 11 11 11 11 11 11 12 12 12 12 13 13 13 14 14 15 16 16 17 17 17 17 17 17 18 18 18 19 19 19 19 19 20 20 20 20 20 20 19 19 19 20 20 20 20 21 22 22
39 38 38 37 37 36 35 33 32 31 30 29 28 27 27 26 26 25 24 23 23 23 22 21 20 19 18 17 15 14 13 12 12 11 12 12 12 11 11 12 12 11 11 11 12 12 13 13 13 13 14 15 15 16 17 17 18 18 17 17 18 18 18 18 18 18 18 19 19 19 19 20 20 20 20 19 19 19 19 19 19 19 20 21 21
38 38 38 37 37 36 35 34 33 31 30 29 28 27 26 26 25 24 24 23 23 22 22 21 20 19 18 17 16 15 14 13 12 11 11 12 12 12 12 12 12 12 12 11 12 12 13 13 13 13 14 15 16 16 17 18 18 18 18 18 19 19 18 18 18 18 18 18 18 19 19 19 19 20 20 20 20 20 20 20 20 19 19 20 20
38 37 37 36 36 35 34 34 33 32 30 29 28 27 26 26 25 24 23 23 22 21 21 21 20 19 18 17 17 16 14 13 12 11 11 11 11 12 11 11 12 12 12 12 12 12 13 13 13 14 14 15 16 16 17 18 18 18 19 19 19 19 19 19 19 19 19 19 19 19 19 19 19 20 20 20 20 20 20 20 20 20 19 20 20
38 37 36 36 35 35 34 33 33 32 31 30 28 27 26 25 25 24 23 22 21 21 20 20 20 19 18 17 16 16 15 14 12 11 11 11 11 11 11 11 11 12 12 12 12 13 13 13 14 14 14 15 16 16 17 18 18 19 19 19 19 19 19 19 19 19 19 19 19 19 20 20 20 20 20 20 21 21 21 20 20 20 20 20 20
37 37 36 35 34 34 33 33 32 32 31 30 29 27 26 25 24 24 23 22 21 20 20 19 19 19 18 17 16 15 15 14 13 11 11 10 11 11 11 11 11 11 11 11 12 12 13 13 14 14 14 15 15 16 17 17 18 19 19 19 19 19 19 19 19 19 19 19 19 19 20 20 20 20 20 20 20 20 21 20 20 20 20 20 20
37 36 35 34 33 33 32 32 31 31 30 30 29 28 27 25 24 24 23 23 22 21 20 19 19 18 18 17 16 15 15 14 14 12 11 10 10 10 11 10 10 11 11 11 11 11 12 13 13 14 14 15 15 16 17 17 18 18 19 19 20 20 19 19 19 19 19 19 19 19 19 19 19 20 20 20 20 20 20 20 20 20 20 20 20
Wind_Direction
312 313 313 313 313 312 311 309 307 304 300 298 296 293 291 290 288 287 287 286 286 286 287 287 288 289 289 289 289 289 288 288 287 286 285 285 285 285 285 284 284 282 279 277 275 273 273 272 270 264 256 250 247 246 249 253 253 251 249 247 247 248 247 247 249 248 243 238 235 235 240 245 246 248 249 248 249 250 248 247 247 249 251 250 251
316 317 316 316 315 313 312 310 307 305 302 300 299 297 295 293 291 289 288 288 288 288 288 289 290 290 290 290 289 288 287 286 285 284 284 284 284 285 284 284 282 279 277 275 273 272 272 271 267 259 250 246 246 246 249 252 251 250 248 246 247 248 248 247 249 251 246 239 237 236 238 244 246 246 247 247 247 249 249 248 247 248 250 251 250
319 319 317 317 315 314 312 310 308 306 304 302 301 300 298 296 294 292 291 290 289 289 289 290 290 290 290 289 288 287 287 286 285 284 283 282 283 284 283 282 280 277 274 272 271 271 270 268 262 252 244 244 245 247 250 251 249 248 246 246 247 247 248 248 249 251 248 240 237 237 238 242 246 246 246 247 246 246 247 248 248 249 249 250 250
320 320 319 318 317 315 313 311 309 307 306 304 303 302 300 298 297 295 293 292 291 291 290 290 290 289 289 289 288 288 287 286 286 284 283 282 282 283 282 280 277 273 271 270 269 269 268 264 257 246 241 244 246 247 250 251 248 246 245 245 246 247 247 248 248 250 249 243 237 236 237 240 245 246 246 246 245 245 246 246 247 249 249 250 250
322 321 320 319 317 316 314 313 311 310 308 307 305 304 302 300 299 297 296 294 293 292 291 290 290 289 289 289 289 289 288 288 287 286 285 283 283 282 280 278 274 270 268 267 268 268 265 259 250 242 240 243 246 249 251 251 248 246 246 246 246 247 247 247 247 247 248 245 239 236 236 238 243 246 246 245 244 243 244 245 246 248 250 249 249
322 321 320 319 318 316 315 314 313 311 310 309 307 305 304 302 300 298 297 295 294 292 292 291 291 290 290 290 290 290 290 289 288 288 287 285 284 282 279 276 271 267 265 265 266 266 261 252 244 239 241 243 247 252 254 251 248 246 246 246 246 247 247 246 246 245 246 245 241 236 235 238 241 244 245 245 244 242 243 245 245 247 248 249 249
322 321 320 319 318 317 316 315 314 313 311 310 308 306 305 303 302 300 298 297 295 294 294 293 292 292 291 291 291 290 290 289 289 288 287 286 284 282 279 275 269 264 263 264 265 262 255 246 240 239 242 244 248 254 254 251 248 246 245 245 245 246 246 245 244 244 244 243 241 238 235 237 240 243 244 245 244 243 242 243 245 246 248 249 250
322 321 320 319 318 317 316 315 315 314 312 311 309 308 306 305 303 302 300 298 297 296 296 295 294 294 293 292 292 291 290 289 289 288 288 286 284 281 277 273 266 262 262 262 262 258 249 241 239 240 241 244 249 254 253 251 249 248 246 245 245 245 245 244 243 243 243 242 240 238 236 237 240 242 244 244 244 243 242 241 243 246 248 249 250
321 321 320 319 318 317 316 315 315 313 312 311 310 309 308 306 304 303 301 299 298 297 297 296 295 294 294 293 292 291 290 289 289 288 287 285 282 279 275 270 264 261 261 261 259 254 245 239 239 240 241 245 250 254 253 251 251 250 248 246 245 245 244 243 242 241 241 241 239 238 237 237 240 243 243 244 244 243 243 242 241 244 247 249 250
322 321 321 320 318 317 316 315 314 313 312 312 311 309 308 307 305 304 302 301 300 299 298 298 297 296 296 294 293 292 290 289 289 288 287 284 281 276 272 267 262 260 260 260 257 250 242 239 239 240 242 247 252 254 253 253 252 250 249 247 245 245 244 243 241 240 240 240 238 237 237 237 240 244 243 243 243 243 243 243 241 242 244 247 249
322 321 320 319 318 317 316 315 314 313 313 312 311 309 308 307 305 304 303 303 302 302 301 300 299 299 297 296 294 292 291 290 289 288 285 281 278 274 269 263 260 259 260 258 255 248 241 239 239 241 244 250 254 255 254 253 252 250 248 246 245 246 244 242 241 239 239 239 237 236 237 237 240 244 244 242 243 243 242 242 241 242 243 245 248
322 321 319 318 317 316 315 314 314 313 312 311 310 309 308 307 306 305 305 304 304 303 303 302 301 300 299 297 295 293 292 290 289 287 284 278 274 271 267 263 258 258 258 256 252 245 239 238 239 241 247 253 255 256 254 252 252 249 247 245 244 244 243 241 240 239 238 237 235 234 236 237 239 243 243 242 243 243 242 242 241 241 243 244 246
320 319 319 317 317 316 315 314 313 312 311 310 309 309 308 308 307 306 306 305 305 305 304 303 303 301 300 298 296 294 292 290 288 285 281 275 269 264 264 263 259 256 254 252 247 242 238 237 239 242 249 254 256 255 254 251 250 247 245 244 242 242 241 240 238 237 236 234 232 232 235 237 238 241 242 242 243 244 243 242 241 241 242 243 245
319 319 318 317 317 316 315 314 313 312 312 311 310 309 309 308 308 308 307 306 306 305 305 304 303 302 301 299 297 295 293 291 288 283 278 272 264 259 259 260 259 255 250 246 243 239 237 237 239 244 250 255 256 255 253 250 247 245 243 242 242 241 241 239 237 235 233 231 229 229 232 235 236 239 241 242 243 244 243 242 241 240 241 243 244
319 319 319 318 317 316 315 314 314 313 312 311 311 311 310 310 309 308 308 307 307 306 305 305 304 302 301 299 297 295 293 290 286 281 275 267 259 253 252 254 255 254 249 243 239 237 236 237 240 247 252 255 254 253 251 248 245 243 242 241 241 240 240 239 237 234 232 229 227 226 230 234 235 238 241 242 243 243 242 242 242 240 241 242 243
320 320 319 318 317 316 315 315 314 314 313 312 312 312 311 311 310 309 309 308 308 307 306 306 305 303 301 299 297 295 293 289 284 279 271 263 255 250 248 247 249 250 248 243 238 235 235 237 242 249 253 253 251 248 247 247 245 242 241 240 239 239 237 235 234 232 229 226 224 225 229 232 234 238 240 240 241 241 241 241 241 240 240 241 241
320 320 319 318 317 317 316 316 315 315 314 313 313 313 312 312 312 311 310 309 308 308 308 307 306 304 302 301 298 296 293 288 282 276 268 260 255 250 247 244 244 246 246 244 239 233 232 237 243 249 251 251 248 245 244 245 245 242 240 238 238 237 234 230 229 227 223 220 220 224 228 230 232 235 236 237 238 238 239 240 239 239 240 240 241
320 319 319 319 318 318 317 317 317 316 316 315 315 314 314 314 313 313 312 311 310 310 310 308 307 305 303 301 299 296 292 287 280 273 265 257 253 250 246 243 243 243 244 244 240 233 231 237 245 249 250 247 243 242 243 244 243 241 239 237 236 234 230 227 224 221 217 215 216 218 223 225 228 231 232 234 236 236 237 238 238 237 238 239 240
320 320 320 320 320 319 318 318 318 317 317 317 316 316 316 315 315 314 313 313 312 311 311 310 308 307 305 302 298 295 292 287 279 271 264 257 252 249 246 243 243 243 242 242 239 233 233 240 247 250 247 242 239 240 241 242 242 240 236 234 233 230 225 223 220 216 215 217 217 217 220 222 225 229 230 232 235 235 235 237 238 237 237 238 239
322 322 322 321 321 321 320 320 320 319 319 318 318 318 317 316 315 315 314 314 313 313 313 312 310 309 307 303 299 295 292 287 280 270 264 258 252 249 246 244 244 244 243 241 238 235 238 245 249 248 243 237 236 238 239 240 240 238 234 232 229 224 221 219 215 212 214 217 218 218 221 224 226 226 224 226 231 234 233 233 236 237 238 238 239
324 323 323 323 323 322 322 322 322 321 320 320 319 319 318 317 316 316 316 316 316 316 316 315 312 311 309 305 301 296 291 286 280 271 265 261 256 251 248 247 247 247 244 240 238 239 244 248 247 243 238 235 233 235 236 237 237 235 232 227 221 218 218 214 210 209 212 214 215 216 219 222 224 222 218 219 226 231 229 226 230 235 236 237 239
325 324 324 325 325 325 325 324 323 323 322 321 320 320 319 319 318 318 318 318 319 320 319 317 314 312 310 307 302 297 290 284 279 272 266 262 258 255 253 252 250 247 243 241 242 245 247 247 243 237 235 234 232 233 233 232 231 229 224 216 214 214 215 211 207 208 210 212 214 216 218 219 221 220 219 219 222 227 226 223 228 233 234 236 239
326 326 326 327 326 326 326 325 324 324 323 322 322 322 321 320 320 320 321 321 322 323 322 319 316 313 311 307 301 295 289 282 277 272 265 260 258 256 254 252 248 246 244 243 245 248 248 245 239 234 233 233 232 231 230 228 228 224 212 207 210 211 208 207 207 208 210 211 214 216 217 218 220 220 220 220 223 227 225 222 227 232 235 238 241
327 327 328 328 328 327 327 326 326 325 325 325 324 323 322 322 321 321 322 324 325 326 324 321 317 313 310 307 299 292 288 282 276 271 264 257 255 253 252 250 247 248 248 246 246 247 244 241 237 234 234 234 232 229 226 224 224 220 207 201 202 203 203 204 207 209 211 213 215 216 216 218 220 222 222 222 225 227 226 225 227 231 235 239 243
329 329 329 329 328 328 328 328 328 328 327 327 326 324 324 323 323 322 323 326 328 328 326 322 317 313 311 308 299 292 289 286 279 272 264 257 254 253 253 251 250 250 250 249 246 242 239 237 236 233 231 230 227 225 222 218 216 214 208 199 194 196 200 202 205 210 213 215 216 217 217 218 220 222 224 224 225 227 229 231 230 228 231 237 242
330 329 329 329 329 329 329 329 329 329 330 329 328 327 326 325 324 323 323 326 330 330 328 323 318 314 311 309 306 300 295 292 289 281 272 263 258 257 256 254 253 252 251 249 243 236 233 233 232 229 225 223 220 218 218 214 209 207 207 201 195 193 196 199 204 209 215 218 219 218 218 219 220 222 224 225 227 231 234 237 237 234 233 235 239
331 330 330 330 330 330 331 331 331 331 331 331 330 329 327 326 325 323 323 325 330 332 329 323 317 315 315 317 320 318 310 305 302 295 285 278 273 270 264 259 255 251 250 248 241 234 231 228 222 216 212 211 211 209 209 209 205 203 202 201 197 192 192 197 203 208 214 220 222 220 219 221 222 223 225 226 228 232 235 237 239 240 238 235 235
331 331 331 331 331 331 332 332 332 333 333 333 333 332 330 328 326 325 324 327 331 332 329 327 325 325 330 334 332 330 326 318 312 307 295 285 278 272 265 258 253 248 245 242 235 231 227 219 210 204 202 202 203 203 203 203 203 201 199 197 195 193 193 198 205 210 215 220 223 224 223 223 223 225 228 229 230 233 234 234 235 239 239 236 235
331 331 331 332 332 332 333 333 334 333 333 334 334 335 334 331 329 328 326 328 332 331 328 330 332 330 334 339 336 334 339 335 321 310 307 305 303 292 271 254 247 244 238 228 223 223 219 211 204 200 200 200 198 196 196 196 198 199 196 193 192 193 196 201 208 214 218 221 224 225 225 223 223 225 228 231 233 235 236 236 235 238 239 237 236
331 331 332 332 332 333 334 334 335 334 334 334 334 335 337 335 332 329 327 326 330 328 321 319 317 313 320 333 336 336 349 1 354 339 336 334 325 314 294 262 239 234 226 214 209 210 210 206 202 200 200 199 195 192 191 192 195 196 194 192 193 195 199 204 210 216 221 224 226 226 225 223 223 224 227 230 232 234 237 238 238 239 240 237 233
332 332 332 333 333 334 334 335 335 335 335 335 334 333 335 338 337 333 328 326 326 323 314 305 300 298 302 313 322 324 341 21 22 11 359 340 323 311 299 272 236 212 207 203 198 198 200 201 201 200 201 201 199 196 194 194 196 197 196 196 197 200 204 208 212 216 221 224 226 227 226 227 228 228 229 231 232 233 234 235 236 238 239 236 233
332 332 333 334 334 334 335 335 336 335 335 335 335 334 334 336 338 338 335 330 327 323 315 304 297 292 285 282 294 306 316 2 15 12 8 351 329 320 316 251 213 178 182 198 195 192 196 200 202 203 204 204 204 203 201 200 200 201 201 201 203 206 209 213 216 219 222 226 228 230 231 232 233 233 233 234 236 236 237 236 236 236 237 235 233
333 333 333 334 334 334 335 335 336 336 336 336 337 337 337 337 338 339 339 336 329 322 316 308 297 286 269 259 265 277 279 272 282 299 299 284 257 187 163 183 190 181 191 207 206 201 201 203 204 206 207 207 208 209 210 210 209 209 208 208 209 211 214 218 221 224 226 229 231 233 234 234 234 234 235 237 239 241 242 241 239 238 237 233 229
333 333 334 334 334 334 335 335 336 337 337 338 338 339 339 339 338 338 337 336 330 322 317 309 299 287 269 253 252 256 259 261 257 240 228 231 222 197 192 197 190 186 197 210 214 214 214 210 208 210 211 212 213 213 213 214 215 215 215 216 216 217 219 222 225 227 229 232 234 235 235 235 235 235 236 238 241 243 245 245 243 241 239 234 226
334 334 334 334 334 334 334 335 336 337 338 339 340 341 340 339 339 338 338 337 336 334 329 320 307 296 281 260 251 252 256 263 265 256 248 243 229 213 216 218 206 197 202 211 216 219 220 218 215 215 215 216 217 216 214 214 215 216 218 219 220 222 224 226 228 231 232 234 236 236 236 236 236 236 238 240 242 243 244 244 243 241 240 236 228
335 335 334 334 334 334 335 335 336 337 338 339 340 341 341 339 338 338 339 338 337 336 335 331 321 308 297 281 262 252 251 256 262 264 262 257 246 235 232 231 226 217 214 217 222 226 229 229 228 226 224 224 224 223 222 221 220 220 220 220 221 223 225 228 231 233 235 236 236 236 236 236 235 236 237 239 240 241 240 241 241 239 239 238 232
336 335 335 335 335 335 335 335 336 338 339 339 340 340 340 340 338 338 338 338 338 337 336 334 329 314 300 293 281 263 253 251 255 260 264 264 261 256 250 245 241 235 230 229 231 234 237 240 241 241 238 234 232 230 228 227 226 225 224 223 223 224 225 228 231 233 234 234 234 233 233 233 233 234 236 236 237 237 238 239 240 239 240 240 236
336 335 335 335 335 335 335 335 336 337 338 338 339 340 341 341 339 338 339 339 339 339 337 335 332 324 309 299 291 278 265 258 256 258 261 263 265 265 263 259 253 247 243 241 240 242 245 247 249 250 248 244 239 233 229 227 226 226 225 224 223 223 224 225 227 229 231 232 232 232 232 232 232 233 234 235 235 236 237 238 240 240 240 240 238
337 336 335 335 335 335 336 336 337 337 337 338 338 339 341 341 340 339 340 340 340 340 339 336 334 330 323 314 302 291 280 272 265 262 261 262 263 264 264 263 260 255 251 248 246 247 250 252 253 252 250 248 244 239 232 227 225 224 223 222 221 221 221 222 224 225 228 230 231 232 233 233 233 233 234 235 235 236 237 237 238 240 240 239 237
337 336 336 335 335 335 337 338 338 337 337 337 338 339 340 341 341 341 341 341 341 341 340 338 336 333 329 323 316 305 294 285 278 270 265 264 263 264 264 264 262 258 255 253 252 252 253 255 256 254 249 245 243 239 234 229 224 222 221 221 221 220 220 221 222 223 225 226 228 230 231 233 234 234 235 236 236 236 236 237 237 238 239 239 237
336 336 335 335 335 335 337 338 338 338 338 337 337 338 339 340 342 341 340 341 341 342 341 340 338 335 332 328 324 319 312 303 293 284 275 271 268 266 265 262 260 257 254 252 252 254 254 256 257 254 249 243 239 236 233 228 225 223 221 220 220 220 220 220 220 220 221 222 224 226 227 229 231 233 234 235 235 234 234 234 234 234 236 237 236
335 335 335 335 335 336 336 338 339 339 339 337 336 337 338 339 341 341 340 340 340 341 341 340 338 336 333 329 325 321 317 312 306 297 289 282 277 272 268 263 259 256 251 248 248 250 251 252 252 251 246 240 235 232 230 228 226 225 223 222 221 220 220 219 219 219 220 220 220 221 222 224 226 228 229 230 230 230 230 230 230 230 231 233 233
334 334 333 334 335 335 336 337 337 338 339 338 336 336 337 338 339 340 339 338 338 339 339 338 337 336 333 330 326 322 318 314 310 304 297 291 285 279 274 268 263 257 251 245 243 243 243 243 242 241 240 237 232 229 226 224 224 224 223 223 222 221 220 219 219 218 219 219 218 219 219 220 221 223 223 224 225 226 226 227 227 227 228 229 230
334 333 333 333 334 334 334 334 335 337 338 339 337 335 335 336 337 338 338 337 337 337 338 337 336 336 334 332 328 324 319 314 309 305 300 295 290 285 279 273 269 264 256 249 243 239 237 236 233 231 230 230 229 227 225 222 222 222 222 221 220 219 220 220 219 218 219 218 218 218 219 219 220 221 220 221 221 222 222 223 224 224 225 226 226
334 334 334 333 333 333 333 332 333 334 336 337 337 335 334 333 334 335 337 337 336 336 337 337 336 335 334 333 331 327 322 317 310 304 300 296 291 287 283 277 273 268 262 257 251 244 238 233 230 226 224 223 223 224 224 222 221 221 220 219 217 216 217 218 218 218 218 218 218 219 219 220 221 221 221 220 219 219 218 218 219 221 222 223 223
334 334 334 334 333 333 332 332 332 332 333 335 336 336 334 332 332 332 334 336 336 335 336 337 336 335 334 333 332 329 326 321 315 307 301 297 293 288 284 279 275 270 265 260 257 253 247 239 231 225 222 220 219 219 220 221 221 220 219 218 217 217 217 217 217 217 217 216 217 217 218 219 221 221 221 220 219 217 216 215 215 217 218 219 219
334 334 334 334 333 333 332 332 331 331 331 332 333 334 334 333 332 331 332 333 334 334 335 335 335 335 333 331 331 330 328 325 320 312 304 297 294 289 285 281 276 272 266 260 255 254 252 248 241 232 225 221 219 218 218 219 220 220 219 218 218 218 219 219 219 219 219 217 217 217 217 218 219 219 220 220 219 217 216 214 214 214 214 214 214
333 333 333 333 333 332 332 331 330 330 330 330 330 332 333 333 332 331 329 330 330 331 332 333 333 334 333 331 329 329 329 327 323 318 309 302 296 291 286 283 278 274 270 265 258 253 250 248 245 240 233 227 223 220 218 218 218 219 220 220 220 220 220 221 222 222 221 220 218 217 217 216 216 217 217 218 218 218 216 214 213 212 211 210 210
331 332 332 332 332 332 332 331 330 330 329 329 329 329 330 331 332 331 329 328 327 328 329 330 331 331 332 331 329 327 327 327 325 321 314 307 301 295 290 285 280 275 271 267 262 256 251 248 245 242 239 234 230 226 223 220 218 218 218 220 221 221 221 221 222 222 222 221 219 217 216 216 215 215 215 216 217 216 216 214 213 211 210 209 208
329 330 331 331 332 331 331 331 330 329 329 328 328 328 328 328 329 329 329 328 326 325 325 327 328 328 330 330 329 327 326 325 325 323 318 310 303 298 293 288 283 279 274 269 265 259 255 250 246 242 239 236 234 232 230 226 222 219 218 218 220 221 221 221 221 221 221 220 219 218 216 215 214 214 214 215 215 215 215 214 212 211 210 210 209
328 328 328 329 330 330 330 331 331 330 329 328 328 327 326 326 326 327 328 328 327 326 324 323 324 325 327 329 328 327 326 325 323 322 321 315 307 300 295 290 285 281 276 272 267 262 256 252 249 245 241 237 234 232 232 231 229 225 222 220 219 220 221 221 221 221 221 221 220 218 217 216 215 214 213 213 214 214 214 213 212 211 210 210 209
Height
2948 2944 2940 2936 2931 2927 2923 2919 2916 2913 2909 2906 2903 2901 2898 2895 2892 2889 2887 2884 2882 2879 2877 2874 2872 2870 2867 2865 2863 2861 2859 2857 2855 2852 2849 2847 2845 2843 2841 2840 2838 2836 2835 2834 2833 2832 2832 2831 2831 2831 2831 2832 2833 2834 2835 2835 2835 2835 2836 2837 2838 2839 2839 2839 2838 2840 2847 2851 2852 2854 2855 2855 2857 2858 2860 2861 2862 2863 2864 2866 2867 2868 2868 2869 2870
2941 2937 2932 2928 2924 2920 2917 2913 2909 2906 2903 2899 2896 2894 2891 2888 2885 2883 2880 2878 2875 2872 2869 2867 2864 2862 2860 2857 2855 2853 2851 2849 2847 2845 2842 2839 2837 2835 2833 2831 2830 2829 2828 2827 2826 2826 2825 2825 2824 2825 2825 2825 2827 2828 2829 2830 2830 2830 2831 2831 2832 2834 2834 2834 2834 2835 2840 2845 2846 2847 2849 2850 2851 2853 2854 2856 2858 2859 2860 2861 2862 2863 2864 2865 2866
2935 2931 2927 2922 2918 2914 2910 2907 2903 2899 2896 2893 2889 2886 2884 2881 2878 2875 2873 2871 2868 2865 2862 2859 2857 2854 2852 2850 2847 2845 2843 2841 2840 2837 2835 2832 2829 2827 2825 2823 2822 2821 2820 2820 2820 2819 2818 2818 2818 2819 2820 2820 2821 2823 2824 2824 2824 2824 2825 2826 2827 2828 2829 2830 2830 2830 2834 2839 2841 2841 2844 2845 2845 2848 2849 2851 2853 2854 2855 2857 2857 2858 2859 2860 2861
2930 2925 2921 2917 2912 2908 2904 2901 2897 2893 2890 2886 2883 2880 2877 2874 2871 2868 2866 2863 2861 2858 2855 2852 2850 2847 2844 2842 2840 2837 2835 2833 2831 2829 2827 2824 2822 2820 2818 2815 2814 2814 2813 2813 2813 2812 2812 2811 2811 2813 2814 2814 2816 2817 2818 2818 2819 2819 2819 2821 2821 2823 2825 2825 2826 2826 2829 2833 2835 2836 2838 2840 2840 2842 2844 2846 2847 2849 2851 2852 2853 2854 2855 2856 2857
2924 2919 2915 2911 2907 2902 2898 2895 2891 2887 2884 2880 2877 2873 2870 2867 2864 2861 2859 2856 2853 2851 2848 2845 2842 2840 2837 2834 2832 2829 2826 2824 2822 2820 2818 2816 2814 2812 2810 2808 2807 2807 2806 2806 2806 2806 2805 2805 2806 2807 2808 2809 2810 2812 2813 2813 2814 2814 2814 2816 2817 2818 2820 2820 2821 2822 2823 2826 2830 2832 2833 2835 2836 2837 2839 2840 2842 2845 2846 2848 2849 2849 2850 2851 2852
2918 2914 2909 2905 2901 2897 2892 2889 2885 2881 2878 2874 2871 2867 2864 2861 2858 2855 2852 2849 2847 2844 2841 2838 2835 2832 2829 2826 2824 2821 2818 2816 2813 2811 2810 2808 2806 2804 2802 2801 2800 2800 2799 2799 2799 2799 2799 2799 2800 2802 2803 2804 2805 2807 2808 2808 2808 2808 2809 2810 2812 2813 2814 2815 2816 2817 2818 2820 2824 2827 2828 2830 2831 2833 2834 2835 2837 2840 2842 2843 2844 2845 2846 2846 2847
2912 2908 2903 2899 2895 2891 2887 2883 2879 2875 2872 2868 2864 2861 2858 2854 2851 2848 2845 2842 2839 2836 2834 2831 2828 2825 2822 2819 2816 2813 2810 2807 2805 2803 2802 2800 2798 2796 2795 2794 2793 2793 2792 2793 2793 2793 2793 2793 2795 2796 2797 2799 2800 2802 2803 2803 2803 2803 2804 2805 2807 2808 2809 2810 2811 2812 2813 2815 2819 2822 2824 2825 2826 2828 2829 2830 2833 2836 2838 2839 2840 2841 2841 2842 2843
2906 2902 2897 2893 2889 2885 2881 2876 2873 2869 2865 2861 2858 2854 2851 2848 2844 2841 2838 2835 2832 2829 2826 2823 2820 2817 2814 2811 2808 2805 2802 2800 2797 2796 2794 2792 2790 2789 2788 2787 2786 2786 2786 2786 2786 2786 2787 2788 2789 2791 2792 2794 2795 2797 2797 2798 2798 2798 2799 2800 2802 2803 2803 2805 2806 2807 2808 2811 2814 2817 2819 2820 2822 2824 2825 2826 2828 2831 2833 2834 2836 2837 2837 2838 2839
2901 2897 2892 2887 2883 2879 2875 2870 2867 2863 2859 2855 2852 2848 2845 2841 2838 2834 2831 2828 2825 2822 2819 2815 2812 2809 2806 2803 2800 2797 2795 2792 2790 2788 2786 2784 2783 2782 2781 2780 2780 2780 2780 2780 2780 2781 2781 2782 2784 2786 2788 2789 2790 2791 2792 2792 2792 2793 2794 2796 2797 2797 2798 2800 2801 2802 2804 2806 2809 2813 2814 2816 2818 2819 2820 2822 2824 2827 2828 2829 2832 2833 2833 2834 2834
2895 2891 2886 2882 2877 2873 2869 2865 2861 2857 2853 2849 2845 2841 2838 2834 2831 2827 2824 2821 2818 2815 2812 2808 2805 2802 2798 2795 2793 2790 2787 2785 2783 2781 2780 2777 2776 2775 2774 2773 2773 2773 2774 2774 2775 2776 2777 2778 2780 2781 2783 2784 2785 2786 2787 2787 2787 2788 2790 2791 2792 2793 2794 2795 2796 2798 2799 2801 2805 2808 2809 2811 2814 2814 2815 2818 2820 2822 2823 2825 2827 2828 2829 2830 2830
2890 2885 2881 2876 2872 2868 2864 2860 2855 2851 2847 2843 2839 2835 2831 2828 2824 2821 2817 2814 2811 2807 2804 2801 2798 2794 2791 2788 2785 2783 2780 2778 2776 2775 2773 2771 2769 2768 2767 2767 2767 2767 2768 2768 2769 2771 2772 2773 2775 2777 2778 2779 2780 2781 2782 2782 2782 2783 2785 2787 2787 2788 2789 2790 2792 2794 2795 2797 2801 2803 2805 2808 2810 2809 2811 2814 2816 2817 2819 2821 2822 2824 2824 2825 2825
2884 2880 2876 2871 2867 2863 2858 2854 2850 2846 2841 2837 2833 2829 2825 2821 2817 2814 2810 2807 2803 2800 2797 2794 2791 2787 2784 2781 2778 2776 2773 2771 2770 2768 2766 2765 2764 2762 2760 2761 2762 2762 2762 2763 2764 2766 2767 2769 2771 2772 2774 2775 2776 2776 2776 2777 2778 2779 2781 2782 2783 2783 2784 2786 2788 2790 2792 2794 2797 2799 2801 2804 2806 2805 2807 2810 2812 2813 2815 2816 2818 2819 2820 2821 2821
2879 2875 2870 2866 2861 2857 2852 2848 2844 2840 2835 2831 2827 2823 2819 2815 2811 2807 2803 2800 2796 2793 2790 2787 2783 2780 2777 2774 2771 2768 2766 2765 2763 2761 2760 2759 2759 2757 2754 2753 2755 2756 2756 2757 2759 2760 2762 2764 2766 2768 2769 2770 2771 2771 2772 2773 2773 2774 2776 2776 2777 2778 2780 2782 2784 2786 2788 2790 2793 2796 2799 2800 2801 2802 2803 2806 2808 2809 2811 2812 2813 2815 2816 2817 2818
2874 2870 2865 2860 2855 2851 2846 2842 2838 2834 2829 2825 2821 2816 2812 2808 2804 2800 2796 2793 2790 2786 2783 2780 2777 2774 2770 2767 2764 2761 2760 2758 2756 2755 2753 2753 2753 2752 2749 2747 2748 2750 2751 2752 2753 2755 2757 2759 2761 2763 2765 2765 2766 2767 2767 2768 2769 2770 2770 2771 2773 2774 2776 2778 2780 2782 2784 2786 2789 2793 2795 2796 2797 2798 2800 2802 2804 2805 2806 2807 2809 2810 2812 2813 2814
2869 2864 2859 2854 2849 2844 2840 2835 2831 2827 2823 2818 2814 2810 2806 2802 2798 2794 2790 2786 2783 2779 2776 2773 2770 2767 2764 2761 2757 2755 2753 2751 2749 2748 2747 2747 2746 2745 2744 2742 2741 2743 2745 2747 2748 2750 2752 2754 2756 2758 2759 2760 2762 2762 2762 2763 2764 2764 2765 2767 2769 2771 2772 2774 2777 2779 2781 2783 2787 2790 2791 2792 2794 2795 2797 2798 2800 2801 2802 2803 2805 2807 2808 2809 2810
2862 2857 2853 2848 2843 2838 2833 2829 2825 2820 2816 2812 2807 2803 2799 2795 2791 2787 2783 2780 2776 2773 2770 2766 2763 2760 2757 2754 2751 2748 2746 2745 2743 2742 2741 2740 2740 2739 2738 2737 2736 2736 2739 2741 2743 2745 2747 2750 2752 2753 2754 2756 2757 2757 2757 2758 2758 2760 2761 2763 2765 2766 2769 2771 2774 2775 2778 2781 2784 2786 2787 2788 2790 2792 2793 2795 2796 2797 2798 2800 2801 2803 2804 2805 2806
2856 2851 2847 2842 2837 2832 2827 2822 2818 2814 2809 2805 2801 2797 2792 2788 2784 2780 2776 2773 2769 2766 2763 2760 2757 2753 2750 2747 2744 2741 2740 2738 2737 2735 2735 2734 2733 2733 2732 2732 2731 2731 2734 2736 2738 2740 2743 2746 2747 2749 2750 2751 2752 2753 2753 2753 2754 2755 2757 2759 2761 2762 2765 2768 2770 2772 2775 2778 2780 2782 2784 2785 2787 2788 2790 2791 2792 2794 2795 2796 2797 2799 2800 2801 2802
2851 2846 2841 2836 2831 2826 2821 2816 2811 2807 2803 2798 2794 2790 2786 2782 2778 2774 2770 2766 2763 2759 2756 2753 2750 2747 2744 2741 2738 2735 2733 2732 2731 2729 2728 2728 2727 2727 2726 2726 2725 2726 2728 2731 2733 2736 2739 2741 2743 2744 2745 2747 2748 2748 2748 2748 2749 2752 2754 2755 2757 2759 2763 2765 2767 2769 2772 2774 2776 2778 2780 2782 2784 2785 2787 2788 2789 2791 2792 2793 2794 2795 2796 2797 2798
2846 2840 2835 2830 2825 2820 2815 2811 2806 2801 2797 2792 2788 2784 2780 2776 2772 2768 2764 2760 2756 2753 2749 2746 2743 2741 2738 2734 2732 2729 2727 2726 2725 2723 2722 2722 2722 2721 2720 2720 2720 2721 2724 2726 2729 2732 2735 2737 2739 2740 2741 2742 2743 2743 2744 2744 2746 2748 2750 2751 2753 2757 2761 2762 2763 2766 2769 2771 2773 2775 2776 2778 2780 2782 2784 2786 2787 2788 2789 2790 2791 2792 2793 2794 2794
2840 2835 2830 2825 2820 2815 2810 2805 2801 2796 2791 2787 2783 2779 2774 2770 2766 2762 2758 2754 2751 2747 2743 2739 2736 2734 2731 2728 2726 2723 2720 2719 2719 2718 2717 2717 2717 2716 2715 2715 2715 2717 2720 2723 2725 2729 2731 2733 2735 2736 2737 2738 2738 2739 2740 2741 2742 2745 2746 2748 2752 2756 2757 2758 2760 2763 2765 2767 2770 2772 2774 2775 2777 2780 2782 2783 2784 2785 2786 2787 2788 2789 2790 2790 2791
2835 2830 2825 2820 2815 2810 2805 2800 2795 2791 2786 2782 2778 2774 2769 2765 2760 2756 2752 2749 2745 2741 2737 2733 2730 2727 2725 2722 2719 2717 2715 2714 2713 2713 2712 2712 2712 2712 2711 2711 2713 2715 2717 2720 2722 2725 2728 2729 2730 2731 2732 2733 2733 2735 2736 2738 2739 2741 2743 2747 2750 2752 2752 2754 2757 2759 2762 2764 2767 2769 2771 2773 2775 2777 2779 2781 2782 2783 2784 2785 2785 2786 2787 2787 2788
2829 2824 2820 2815 2810 2805 2800 2795 2791 2786 2782 2777 2773 2769 2764 2760 2755 2751 2747 2743 2740 2736 2732 2728 2725 2722 2720 2717 2715 2713 2711 2709 2709 2709 2708 2708 2709 2708 2708 2709 2711 2713 2714 2717 2719 2722 2723 2725 2726 2727 2727 2728 2729 2731 2732 2734 2735 2737 2741 2745 2746 2747 2749 2753 2755 2756 2758 2761 2763 2765 2768 2770 2772 2775 2777 2778 2779 2780 2781 2782 2782 2783 2784 2785 2785
2824 2819 2815 2810 2805 2801 2796 2791 2786 2782 2777 2772 2768 2763 2759 2755 2751 2747 2743 2739 2735 2731 2727 2724 2720 2717 2715 2713 2711 2709 2707 2706 2705 2705 2705 2705 2705 2706 2706 2708 2710 2710 2712 2714 2716 2718 2719 2720 2721 2722 2723 2724 2725 2727 2729 2730 2732 2734 2738 2741 2743 2745 2747 2750 2751 2753 2755 2758 2760 2763 2765 2768 2770 2772 2774 2776 2777 2777 2778 2779 2780 2781 2782 2782 2783
2819 2814 2810 2805 2801 2796 2792 2787 2782 2778 2773 2768 2764 2759 2755 2750 2746 2742 2739 2735 2731 2727 2723 2720 2716 2714 2712 2710 2708 2706 2704 2703 2703 2702 2702 2703 2703 2704 2704 2706 2707 2707 2709 2711 2713 2714 2715 2716 2717 2718 2719 2720 2722 2724 2725 2726 2729 2732 2735 2737 2739 2742 2744 2746 2749 2751 2753 2755 2757 2760 2763 2765 2767 2769 2771 2773 2774 2775 2776 2777 2778 2779 2780 2780 2781
2815 2810 2805 2801 2796 2792 2787 2783 2779 2774 2770 2765 2760 2755 2750 2746 2742 2738 2734 2732 2728 2724 2720 2717 2714 2711 2708 2707 2705 2704 2702 2701 2701 2700 2700 2700 2701 2701 2702 2703 2704 2705 2706 2707 2709 2711 2711 2712 2713 2714 2716 2717 2718 2719 2721 2723 2726 2729 2732 2733 2735 2738 2741 2743 2746 2748 2750 2753 2755 2758 2760 2763 2765 2766 2768 2769 2771 2773 2774 2775 2776 2777 2778 2778 2779
2810 2805 2801 2796 2791 2787 2783 2779 2775 2771 2766 2762 2757 2752 2747 2742 2738 2734 2730 2728 2725 2722 2718 2714 2711 2709 2707 2705 2703 2702 2701 2700 2699 2699 2699 2699 2699 2699 2700 2700 2701 2701 2702 2704 2706 2707 2708 2709 2710 2711 2712 2714 2715 2716 2718 2721 2723 2726 2729 2731 2732 2734 2737 2741 2743 2746 2748 2750 2753 2755 2758 2760 2762 2763 2765 2767 2769 2770 2771 2772 2773 2774 2775 2776 2777
2806 2801 2796 2792 2787 2782 2778 2774 2770 2766 2762 2758 2754 2749 2744 2740 2735 2731 2727 2725 2722 2719 2716 2713 2710 2707 2705 2703 2702 2701 2699 2698 2698 2697 2697 2697 2697 2697 2698 2698 2698 2699 2699 2701 2703 2704 2705 2706 2707 2708 2709 2711 2712 2713 2716 2718 2721 2723 2725 2728 2730 2732 2735 2738 2741 2743 2746 2748 2750 2753 2755 2757 2759 2761 2763 2765 2766 2767 2768 2770 2770 2771 2773 2774 2775
2801 2797 2792 2787 2783 2779 2774 2770 2766 2762 2758 2755 2751 2746 2741 2737 2733 2728 2724 2721 2718 2716 2713 2711 2708 2705 2703 2702 2701 2699 2698 2697 2697 2696 2696 2696 2696 2695 2695 2695 2696 2696 2697 2698 2700 2701 2702 2703 2704 2705 2706 2708 2709 2711 2714 2716 2718 2720 2723 2726 2728 2730 2733 2736 2739 2741 2743 2745 2747 2749 2752 2754 2756 2758 2760 2762 2763 2764 2766 2767 2768 2769 2770 2771 2773
2798 2793 2788 2784 2779 2775 2771 2767 2762 2758 2754 2751 2748 2744 2739 2733 2729 2725 2722 2719 2717 2714 2710 2709 2707 2705 2703 2702 2701 2699 2698 2697 2696 2696 2695 2695 2694 2694 2693 2693 2693 2694 2694 2696 2697 2698 2700 2701 2702 2703 2705 2706 2708 2710 2712 2714 2717 2719 2721 2724 2727 2729 2732 2734 2736 2738 2740 2742 2744 2746 2749 2751 2754 2756 2757 2759 2760 2762 2763 2764 2766 2767 2768 2769 2770
2794 2789 2785 2781 2776 2771 2767 2763 2759 2755 2751 2747 2744 2742 2739 2734 2729 2723 2720 2718 2716 2714 2711 2709 2707 2705 2703 2703 2702 2700 2698 2697 2696 2695 2695 2694 2694 2693 2692 2692 2692 2692 2693 2694 2695 2696 2698 2700 2701 2702 2704 2705 2707 2709 2711 2713 2715 2717 2720 2722 2725 2727 2729 2731 2733 2735 2737 2739 2741 2743 2746 2748 2751 2753 2755 2756 2758 2759 2760 2762 2763 2764 2765 2767 2768
2790 2786 2782 2777 2773 2768 2764 2760 2756 2752 2748 2744 2740 2737 2736 2734 2731 2725 2719 2716 2714 2713 2711 2709 2706 2705 2703 2702 2702 2700 2699 2697 2696 2696 2695 2694 2693 2692 2692 2691 2691 2691 2692 2693 2694 2695 2697 2699 2700 2702 2703 2705 2706 2708 2710 2712 2714 2716 2718 2720 2723 2725 2726 2728 2730 2732 2734 2736 2738 2740 2743 2745 2747 2749 2751 2753 2755 2756 2758 2759 2761 2762 2763 2764 2766
2787 2782 2778 2774 2770 2766 2761 2757 2753 2749 2745 2742 2738 2733 2730 2729 2728 2726 2721 2716 2712 2710 2709 2707 2705 2704 2703 2702 2701 2699 2698 2697 2696 2695 2694 2693 2692 2691 2691 2690 2691 2691 2692 2692 2694 2695 2696 2698 2699 2701 2703 2704 2706 2707 2709 2711 2713 2715 2716 2718 2720 2722 2724 2726 2727 2729 2731 2733 2735 2738 2740 2743 2745 2747 2748 2750 2751 2753 2754 2756 2758 2759 2760 2762 2764
2784 2779 2775 2771 2767 2763 2759 2755 2751 2747 2743 2739 2735 2731 2727 2723 2722 2721 2720 2717 2712 2709 2707 2705 2703 2701 2701 2700 2700 2699 2697 2695 2694 2694 2692 2691 2691 2690 2690 2690 2690 2691 2691 2692 2693 2694 2696 2697 2698 2700 2701 2703 2704 2706 2707 2709 2711 2713 2714 2716 2718 2720 2721 2723 2724 2726 2728 2730 2732 2735 2737 2739 2741 2744 2745 2747 2748 2749 2751 2753 2755 2756 2758 2760 2761
2782 2777 2773 2768 2764 2760 2756 2753 2749 2745 2741 2737 2733 2729 2725 2722 2718 2716 2714 2714 2712 2709 2706 2703 2701 2700 2699 2698 2698 2697 2695 2693 2693 2692 2691 2690 2690 2690 2690 2689 2690 2690 2691 2691 2692 2693 2694 2695 2697 2698 2699 2701 2702 2703 2705 2706 2708 2710 2712 2713 2715 2717 2719 2720 2721 2723 2725 2727 2729 2732 2734 2736 2738 2740 2742 2744 2745 2746 2748 2750 2751 2753 2755 2757 2759
2780 2776 2771 2767 2762 2758 2754 2750 2746 2742 2738 2735 2731 2727 2723 2720 2717 2714 2711 2709 2707 2706 2704 2701 2699 2698 2697 2696 2695 2694 2693 2692 2692 2691 2690 2690 2690 2690 2689 2689 2689 2690 2690 2690 2691 2691 2692 2693 2694 2695 2697 2698 2699 2701 2702 2703 2705 2707 2708 2710 2712 2713 2715 2717 2718 2720 2722 2724 2726 2728 2731 2733 2735 2737 2739 2741 2742 2743 2745 2746 2748 2750 2751 2754 2756
2777 2773 2769 2765 2761 2756 2752 2748 2744 2741 2737 2733 2729 2726 2722 2719 2716 2713 2710 2707 2705 2703 2701 2699 2697 2696 2694 2693 2693 2692 2691 2691 2690 2690 2689 2689 2689 2689 2689 2689 2689 2689 2689 2689 2690 2690 2691 2691 2692 2693 2694 2695 2697 2698 2700 2701 2702 2704 2705 2707 2708 2710 2712 2713 2715 2717 2719 2721 2723 2725 2727 2729 2732 2734 2735 2737 2739 2740 2741 2743 2745 2746 2748 2750 2753
2774 2770 2766 2762 2758 2754 2750 2747 2743 2739 2735 2732 2728 2725 2722 2718 2715 2712 2709 2706 2704 2701 2699 2697 2696 2694 2693 2691 2691 2690 2689 2689 2688 2688 2688 2688 2688 2688 2688 2688 2688 2688 2688 2688 2688 2689 2689 2690 2690 2691 2692 2693 2694 2695 2697 2698 2699 2700 2702 2703 2705 2706 2708 2710 2712 2714 2716 2717 2719 2721 2723 2726 2728 2730 2732 2734 2735 2737 2738 2740 2741 2743 2745 2747 2750
2772 2768 2764 2760 2756 2752 2748 2745 2741 2738 2734 2730 2727 2724 2720 2717 2714 2711 2708 2705 2702 2700 2697 2695 2694 2692 2691 2690 2689 2688 2687 2686 2686 2686 2686 2686 2686 2686 2686 2686 2686 2686 2687 2687 2687 2687 2688 2688 2688 2689 2689 2690 2691 2692 2693 2694 2695 2697 2698 2700 2702 2703 2705 2707 2709 2711 2712 2714 2716 2718 2720 2722 2724 2726 2728 2730 2732 2733 2735 2737 2738 2740 2742 2744 2746
2771 2766 2762 2758 2754 2750 2746 2742 2739 2735 2732 2729 2725 2722 2719 2716 2712 2710 2707 2704 2701 2699 2696 2694 2692 2690 2689 2688 2687 2686 2685 2684 2684 2684 2684 2684 2684 2683 2683 2684 2684 2684 2684 2685 2685 2685 2686 2686 2686 2687 2687 2688 2688 2689 2690 2691 2692 2694 2695 2697 2698 2700 2702 2704 2705 2707 2709 2711 2712 2714 2716 2718 2720 2722 2724 2726 2728 2730 2732 2733 2735 2737 2738 2740 2743
2768 2764 2760 2756 2752 2748 2745 2741 2737 2733 2730 2727 2723 2720 2717 2714 2711 2708 2705 2702 2700 2697 2695 2693 2691 2689 2687 2686 2685 2684 2683 2683 2682 2682 2682 2681 2681 2681 2681 2681 2681 2681 2682 2682 2683 2683 2683 2684 2684 2685 2685 2685 2686 2687 2688 2689 2690 2691 2692 2694 2695 2697 2698 2700 2702 2704 2706 2707 2709 2711 2712 2714 2716 2718 2720 2722 2724 2726 2728 2730 2732 2733 2735 2737 2739
2765 2762 2758 2754 2750 2746 2743 2739 2735 2732 2728 2725 2721 2718 2715 2712 2709 2706 2703 2701 2699 2696 2694 2691 2689 2687 2686 2684 2683 2682 2681 2681 2680 2680 2680 2679 2679 2679 2679 2679 2679 2679 2679 2680 2680 2681 2681 2682 2682 2682 2683 2683 2684 2685 2686 2687 2688 2689 2690 2691 2692 2694 2695 2697 2699 2700 2702 2704 2706 2707 2709 2711 2713 2715 2717 2719 2721 2723 2725 2726 2728 2730 2732 2733 2735
2763 2759 2756 2752 2748 2744 2741 2737 2734 2730 2727 2723 2720 2717 2714 2711 2708 2705 2702 2699 2697 2695 2693 2691 2689 2686 2685 2683 2682 2681 2680 2679 2679 2678 2678 2677 2677 2677 2677 2677 2677 2677 2677 2677 2678 2678 2679 2679 2680 2680 2681 2681 2682 2683 2684 2685 2686 2687 2688 2689 2690 2692 2693 2695 2696 2698 2699 2701 2703 2704 2706 2708 2710 2712 2714 2715 2717 2719 2721 2723 2725 2727 2728 2730 2732
2761 2757 2753 2750 2746 2742 2738 2735 2732 2728 2725 2722 2718 2715 2712 2709 2707 2704 2701 2698 2696 2694 2692 2690 2688 2686 2684 2682 2681 2679 2678 2678 2677 2676 2676 2676 2675 2675 2675 2675 2675 2675 2675 2675 2675 2676 2676 2677 2677 2678 2679 2680 2680 2681 2682 2683 2684 2685 2687 2688 2689 2690 2691 2693 2694 2695 2697 2699 2700 2702 2704 2705 2707 2709 2711 2712 2714 2716 2718 2720 2721 2723 2725 2727 2729
2758 2754 2751 2747 2744 2740 2737 2733 2730 2727 2723 2720 2716 2713 2710 2708 2705 2703 2700 2698 2695 2692 2690 2688 2686 2685 2683 2681 2679 2678 2677 2676 2675 2675 2674 2674 2673 2673 2673 2673 2673 2673 2673 2673 2673 2674 2674 2675 2675 2676 2676 2677 2679 2680 2681 2682 2683 2684 2685 2686 2688 2689 2690 2691 2692 2694 2695 2697 2698 2700 2701 2703 2705 2706 2708 2710 2711 2713 2715 2717 2718 2720 2722 2724 2726
2755 2752 2748 2744 2741 2738 2735 2731 2728 2725 2722 2719 2716 2712 2709 2706 2704 2701 2699 2697 2694 2691 2689 2687 2685 2683 2681 2680 2678 2677 2676 2675 2674 2673 2672 2672 2672 2671 2671 2671 2671 2671 2671 2672 2672 2672 2672 2673 2673 2674 2674 2675 2676 2677 2679 2680 2681 2682 2683 2684 2686 2687 2688 2689 2691 2692 2693 2695 2696 2698 2699 2701 2702 2704 2706 2707 2709 2711 2713 2714 2716 2718 2720 2721 2723
2753 2749 2745 2741 2738 2735 2731 2729 2726 2723 2720 2717 2714 2711 2708 2705 2702 2700 2697 2695 2693 2690 2688 2686 2684 2682 2680 2678 2677 2675 2674 2673 2672 2671 2671 2670 2670 2670 2669 2669 2669 2669 2669 2670 2670 2670 2671 2671 2671 2672 2672 2673 2674 2675 2676 2678 2679 2680 2681 2683 2684 2685 2686 2688 2689 2690 2692 2693 2694 2696 2697 2698 2700 2702 2703 2705 2707 2709 2710 2712 2714 2716 2717 2719 2721
2751 2747 2743 2739 2735 2732 2729 2725 2723 2720 2717 2714 2712 2709 2706 2703 2700 2698 2696 2693 2691 2689 2687 2684 2683 2681 2679 2677 2675 2674 2673 2672 2671 2670 2669 2668 2668 2668 2667 2667 2667 2667 2667 2668 2668 2668 2669 2669 2670 2670 2671 2671 2672 2673 2674 2675 2677 2678 2679 2680 2682 2683 2684 2686 2687 2688 2690 2691 2692 2694 2695 2696 2698 2700 2701 2703 2705 2707 2708 2710 2712 2714 2715 2717 2719
2748 2744 2741 2737 2733 2730 2726 2723 2720 2717 2715 2712 2710 2707 2704 2701 2699 2696 2694 2692 2690 2688 2685 2683 2681 2679 2678 2676 2674 2673 2671 2670 2669 2668 2667 2667 2666 2666 2665 2665 2665 2665 2665 2666 2666 2666 2667 2667 2668 2668 2669 2670 2670 2671 2672 2673 2674 2676 2677 2678 2680 2681 2682 2683 2685 2686 2687 2689 2690 2692 2693 2694 2696 2698 2699 2701 2703 2705 2706 2708 2710 2711 2713 2715 2717
2745 2741 2738 2734 2731 2727 2724 2721 2718 2715 2712 2709 2707 2705 2702 2699 2697 2694 2692 2690 2688 2686 2684 2682 2680 2678 2677 2675 2673 2671 2670 2669 2668 2667 2666 2665 2664 2664 2663 2663 2663 2663 2663 2663 2664 2664 2664 2665 2665 2666 2667 2668 2669 2669 2670 2671 2672 2673 2675 2676 2677 2679 2680 2681 2682 2684 2685 2687 2688 2689 2691 2692 2694 2696 2697 2699 2701 2703 2704 2706 2707 2709 2711 2713 2715
2742 2738 2735 2732 2728 2725 2722 2719 2715 2712 2709 2707 2704 2702 2700 2698 2695 2693 2690 2688 2686 2684 2682 2680 2678 2677 2675 2673 2672 2670 2669 2668 2666 2665 2664 2663 2663 2662 2661 2661 2661 2661 2661 2661 2661 2662 2662 2663 2663 2664 2665 2666 2667 2667 2668 2669 2670 2671 2672 2674 2675 2676 2678 2679 2680 2682 2683 2685 2686 2687 2689 2690 2692 2693 2695 2697 2699 2700 2702 2704 2705 2707 2709 2711 2713
2739 2735 2732 2729 2726 2722 2719 2716 2713 2710 2708 2705 2702 2700 2697 2695 2693 2691 2689 2686 2684 2682 2680 2679 2677 2675 2673 2672 2670 2669 2667 2666 2665 2664 2663 2662 2661 2660 2660 2659 2659 2659 2659 2659 2659 2660 2660 2660 2661 2662 2662 2663 2664 2665 2666 2667 2668 2669 2670 2671 2672 2674 2675 2677 2678 2680 2681 2682 2684 2685 2687 2688 2690 2691 2693 2695 2697 2698 2700 2702 2703 2705 2707 2709 2710